Temperature
18 18 18 19 19 19 19 18 18 18 18 18 18 18 18 18 18 17 17 17 17 17 17 17 17 18 18 18 18 17 17 17 17 17 17 17 17 17 17 17 17 17 17
18 18 18 19 19 19 18 18 18 18 18 18 18 18 18 18 18 17 17 17 17 17 17 17 17 17 17 18 17 17 17 17 17 17 17 17 17 17 17 17 17 17 17
18 18 18 18 18 18 18 18 18 18 18 18 18 18 18 18 18 17 17 17 17 17 17 17 17 17 17 17 17 17 17 17 17 17 17 17 17 17 17 17 17 16 16
18 18 18 18 18 18 18 18 18 18 18 18 18 18 18 18 17 17 17 17 17 17 17 17 17 17 17 17 17 17 17 17 17 16 16 16 16 16 16 16 16 16 16
18 18 18 18 18 18 18 18 18 18 18 18 18 18 18 17 17 17 17 17 17 17 17 17 17 17 17 17 17 17 17 17 17 16 16 16 16 16 16 16 16 16 16
18 18 18 18 18 18 18 18 18 18 18 18 18 17 17 17 17 17 17 17 17 17 17 17 17 17 17 17 17 17 17 17 17 16 16 16 16 16 16 16 16 16 16
18 18 18 18 18 18 18 18 18 18 18 18 17 17 17 17 17 17 17 17 17 17 17 17 17 17 17 17 17 17 17 17 17 17 16 16 16 16 16 16 16 16 16
18 18 18 18 18 18 18 18 17 17 17 17 17 17 17 17 17 17 17 17 17 17 17 17 17 17 17 17 17 17 17 17 17 16 16 16 16 16 16 16 16 16 16
18 18 18 18 18 18 18 17 17 17 17 17 17 17 17 17 17 17 17 17 17 17 17 17 17 17 17 17 17 17 17 16 16 16 16 16 16 16 16 16 16 16 15
18 18 18 18 18 18 18 18 17 17 17 17 17 17 17 17 17 17 17 17 17 17 17 17 17 17 17 17 16 16 16 16 16 16 16 16 16 16 16 16 16 15 15
18 18 17 17 17 17 17 17 17 17 17 17 17 17 16 16 16 16 16 17 17 17 17 17 17 17 17 17 16 16 16 16 16 16 16 16 16 16 16 16 16 15 15
17 17 17 17 17 17 17 17 16 16 16 16 16 16 16 16 16 16 16 16 16 16 16 16 17 17 17 16 16 16 16 16 16 16 15 15 15 15 15 16 15 15 15
16 16 16 17 17 17 16 16 16 16 16 15 15 16 16 16 16 16 16 15 16 16 16 16 16 16 16 16 16 16 16 16 16 15 15 15 15 15 15 15 15 15 15
15 16 16 16 16 16 16 16 15 15 15 15 15 15 15 15 15 15 15 15 15 15 16 16 16 16 16 16 16 16 16 16 15 15 15 15 15 15 15 15 15 15 15
15 15 15 15 15 15 15 15 15 15 14 14 14 15 15 15 15 15 15 15 14 14 15 15 15 16 16 16 16 16 16 16 15 15 15 14 14 14 14 14 14 14 14
14 14 14 14 14 14 14 14 14 14 14 14 14 14 14 14 14 14 14 14 14 14 14 15 15 15 15 15 15 16 15 15 15 15 14 14 14 14 14 14 14 14 14
13 13 13 14 14 14 14 14 14 14 14 14 14 14 14 14 14 14 14 14 14 14 14 14 14 14 15 15 15 15 15 15 15 14 14 14 14 14 14 14 14 14 14
13 13 13 13 13 13 13 13 13 13 14 14 14 14 14 14 14 14 14 14 14 14 14 14 14 14 14 14 14 15 14 14 14 14 14 14 14 14 14 14 14 14 14
13 13 13 13 13 13 13 13 13 13 13 13 14 14 14 14 14 14 14 14 14 14 14 14 14 14 14 14 14 14 14 14 14 14 14 14 14 14 14 14 14 14 14
13 13 13 13 13 13 13 13 13 13 13 14 14 14 14 14 14 14 14 14 14 14 14 13 13 13 14 14 14 14 14 14 14 13 13 13 13 13 13 13 13 13 13
12 12 12 12 13 13 13 13 13 13 13 13 14 14 14 14 14 14 14 14 14 14 14 13 13 13 13 13 13 13 13 13 13 13 13 13 13 13 13 13 13 13 13
12 12 12 12 12 12 12 13 13 13 13 14 14 14 14 14 14 14 14 14 14 14 14 13 13 13 13 13 13 13 13 13 13 12 12 12 12 13 13 12 12 12 12
11 11 11 12 12 12 12 12 13 13 13 13 14 14 14 14 14 14 14 14 14 14 14 13 13 13 13 13 13 13 13 12 12 12 12 12 12 12 12 12 12 12 12
11 11 11 11 11 11 12 12 12 13 13 13 13 13 14 14 14 14 14 14 14 13 13 13 13 13 13 13 13 13 12 12 12 12 12 11 11 11 11 11 11 11 11
10 11 11 11 11 11 11 12 12 12 12 13 13 13 13 13 13 13 14 14 13 13 13 13 13 13 13 13 13 13 12 12 12 12 11 11 11 11 11 11 11 11 10
10 10 10 10 10 11 11 11 11 12 12 12 12 13 13 13 13 13 13 13 13 13 13 13 13 13 13 12 12 12 12 12 12 12 11 11 11 11 10 10 10 10 10
Wind_Speed
4 5 5 6 6 5 4 3 3 3 3 3 4 5 5 5 5 5 4 3 4 4 3 3 3 2 1 1 2 2 2 3 4 4 4 5 5 5 4 4 4 3 3
7 5 4 5 6 7 6 5 3 2 2 2 3 4 6 6 6 5 5 4 4 4 4 4 3 3 2 2 2 2 2 3 4 4 4 4 4 4 3 3 4 4 4
10 7 4 4 6 8 6 4 3 2 2 1 2 2 4 5 5 6 5 4 4 5 5 5 4 4 4 3 3 3 3 3 4 4 4 4 4 4 4 4 5 5 6
13 8 5 6 7 7 5 3 3 2 2 2 1 1 2 3 4 5 5 5 5 4 5 4 4 4 4 4 3 3 3 3 4 4 4 4 4 4 5 5 5 6 6
15 10 6 6 7 5 4 4 3 3 3 3 2 1 1 2 3 4 5 6 6 6 5 5 4 4 3 4 3 3 3 3 4 4 4 4 4 4 4 4 4 4 5
13 11 6 6 6 4 5 4 4 3 3 4 3 2 1 2 2 4 4 6 7 7 7 5 5 4 4 4 4 4 3 3 3 3 3 3 2 3 3 3 3 4 5
11 9 6 6 6 6 6 6 4 4 2 3 3 1 1 1 3 4 3 4 6 8 8 8 7 6 5 5 5 5 4 4 4 3 3 2 2 2 3 3 4 5 5
11 9 8 7 7 6 6 6 5 4 3 4 4 3 1 3 2 2 3 4 5 5 7 9 8 8 7 6 6 6 6 5 5 5 4 4 3 2 2 3 4 4 4
11 10 9 8 8 7 7 7 7 7 4 3 2 4 4 5 3 2 2 2 3 4 4 6 9 10 9 9 8 8 8 7 6 6 5 4 3 3 2 3 3 2 1
8 10 8 9 9 7 7 8 7 5 5 4 2 1 2 3 3 1 2 2 2 4 4 5 7 10 11 11 11 11 10 9 9 8 6 5 4 4 3 2 2 1 1
5 7 8 8 9 8 8 8 7 6 5 5 4 3 2 1 2 3 2 2 2 2 3 5 5 8 11 12 13 13 13 12 11 10 8 6 5 4 3 2 2 2 1
3 5 6 7 8 7 8 7 7 7 5 5 4 4 4 3 4 4 4 3 2 2 2 3 4 6 10 12 14 14 15 15 13 12 10 8 7 6 5 4 3 3 2
2 4 6 6 6 6 7 7 7 7 7 6 6 4 4 4 3 4 4 3 2 2 2 2 3 5 7 10 12 14 15 16 15 14 12 10 9 8 7 6 5 5 5
0 2 4 5 5 6 7 6 5 6 6 6 6 6 4 4 4 4 4 4 2 1 2 3 2 2 5 7 10 11 12 15 16 16 14 12 11 10 9 8 7 7 7
2 3 3 3 4 5 6 6 5 4 4 4 5 5 4 4 4 4 3 4 4 3 2 3 2 2 3 4 6 8 10 12 14 15 14 13 12 12 11 10 9 8 7
5 5 5 4 4 4 4 5 4 4 4 4 3 4 4 3 4 4 4 3 3 4 3 2 2 2 2 1 2 5 7 8 9 12 13 13 13 13 12 12 12 11 10
6 6 5 5 5 4 4 4 4 4 4 3 3 4 4 3 3 3 3 3 3 3 4 2 1 2 2 2 2 0 2 4 5 8 10 12 13 13 13 14 13 13 12
6 5 5 5 5 4 3 3 3 3 3 3 3 4 4 3 4 3 3 3 3 4 3 2 1 2 2 2 2 1 1 1 3 5 6 9 10 12 12 13 13 14 13
7 7 7 6 6 5 4 3 3 3 3 2 3 3 3 4 4 3 3 3 3 3 3 2 0 1 1 2 2 2 2 2 2 2 3 4 6 7 8 10 11 12 13
8 8 7 7 6 5 5 3 3 2 2 1 1 3 4 5 5 5 4 4 4 4 3 2 1 1 1 1 2 2 2 2 3 4 4 4 3 3 4 5 6 7 8
10 9 8 8 7 5 5 4 3 2 1 1 1 1 3 4 5 5 4 5 5 4 3 3 2 1 1 2 1 1 1 1 3 3 3 4 4 4 4 5 4 4 4
9 9 9 8 8 7 8 8 5 3 2 1 1 1 1 3 4 5 7 8 7 5 4 3 2 2 1 1 1 1 1 2 2 3 3 3 3 4 5 6 8 8 7
8 9 9 9 8 10 12 10 8 4 3 2 2 2 2 3 5 5 6 7 6 6 6 5 4 2 2 0 1 2 2 3 2 2 2 3 4 5 7 11 12 12 11
7 7 8 9 8 11 14 11 8 5 4 4 4 3 3 2 3 6 6 6 5 5 5 5 5 3 2 2 2 2 2 3 3 3 3 3 3 4 5 11 16 17 17
7 7 7 9 9 10 14 12 7 4 4 4 4 4 4 3 3 7 7 7 6 5 7 9 9 8 8 7 5 3 3 3 3 3 4 2 2 2 4 6 13 17 19
6 6 7 8 9 9 13 13 8 3 4 4 4 5 5 4 4 7 6 7 7 5 5 6 7 9 9 10 10 5 3 3 2 2 4 2 2 2 3 4 8 12 13
Wind_Direction
201 210 220 222 223 223 224 234 248 270 274 264 247 231 227 219 213 215 237 244 226 223 213 196 185 181 173 163 167 155 147 147 144 142 141 141 142 144 145 151 156 162 168
208 207 214 217 219 217 219 223 237 257 271 265 246 224 217 209 207 209 226 243 235 232 238 228 213 208 214 219 217 198 186 183 178 172 168 168 173 176 186 198 209 213 215
212 211 211 218 220 213 207 211 228 244 252 229 219 201 199 198 199 206 218 234 240 236 239 245 244 229 227 233 233 228 218 210 202 202 202 202 208 215 225 233 238 237 233
211 207 212 224 221 199 187 189 198 209 220 191 176 188 183 187 199 209 218 231 238 240 240 245 255 240 234 240 239 237 232 216 216 220 223 224 231 240 248 251 254 252 243
211 207 212 221 215 191 185 196 181 177 187 184 177 185 215 198 196 212 219 228 233 237 239 244 241 233 236 243 247 249 234 224 221 227 231 232 238 249 256 259 263 263 255
212 209 212 216 203 194 192 186 176 168 175 168 155 142 220 225 207 216 222 226 230 232 232 235 235 235 237 238 244 249 246 237 233 235 235 232 236 252 261 271 276 279 275
205 203 211 204 192 197 197 182 163 163 158 138 118 98 326 261 227 232 224 224 228 228 226 227 227 228 232 237 239 243 247 244 245 243 244 243 241 257 265 271 276 280 280
203 207 204 200 192 193 187 175 161 155 160 155 146 134 286 317 284 237 230 228 230 220 223 226 224 225 226 229 235 242 249 250 246 245 251 257 255 258 266 275 276 279 279
203 200 198 194 188 186 190 185 179 166 170 173 161 151 165 220 269 295 262 242 229 217 226 225 225 226 226 228 233 239 242 242 244 246 247 251 256 257 272 282 275 286 292
203 197 190 183 183 184 185 188 186 180 161 170 175 167 157 157 166 281 307 293 250 226 229 229 229 228 226 227 230 234 236 237 240 243 244 244 247 250 252 264 271 274 276
201 191 185 181 182 183 181 180 177 183 178 173 174 168 159 153 157 171 245 291 314 265 238 231 232 231 228 227 229 231 232 234 235 238 241 244 244 244 238 247 248 261 251
194 187 184 185 184 177 178 180 178 182 189 186 185 180 172 171 185 181 204 228 253 280 276 249 236 236 233 229 230 230 228 230 231 233 236 240 242 244 244 245 245 247 247
194 188 187 185 180 174 175 174 179 183 185 186 190 195 193 191 170 172 179 198 226 275 301 278 246 246 242 234 233 232 229 228 229 231 233 236 238 243 251 253 256 256 258
166 167 175 176 177 176 175 173 178 181 178 185 193 192 196 198 182 177 168 160 180 263 292 280 294 258 258 243 238 231 229 229 229 231 233 236 239 242 246 251 259 267 273
69 89 108 131 152 162 158 157 161 167 176 190 198 196 194 193 186 182 165 163 165 195 259 282 292 302 283 256 243 225 227 232 234 233 234 237 242 244 246 249 253 257 266
55 70 76 89 107 117 137 148 146 159 163 177 186 187 193 186 182 174 175 172 168 173 217 258 263 285 308 312 246 222 232 236 240 240 238 240 244 246 247 250 254 255 258
52 64 69 75 86 98 109 129 143 158 164 174 175 174 186 172 170 169 165 164 170 167 204 263 281 307 334 354 11 321 233 233 245 249 246 246 246 248 249 252 254 255 255
47 61 70 70 72 79 88 108 126 139 141 161 177 172 176 167 164 163 163 169 176 177 180 218 303 336 351 1 10 19 24 250 248 261 258 254 252 252 254 255 255 255 254
46 48 56 59 60 62 66 73 94 102 119 156 167 167 171 164 166 163 164 165 162 157 153 161 238 346 355 9 27 26 29 13 343 318 297 281 269 262 262 261 259 257 255
44 42 45 45 48 54 53 55 73 94 113 139 169 185 180 179 176 169 164 157 141 130 129 134 128 24 13 7 44 36 27 25 22 15 18 10 345 320 304 288 278 271 266
45 41 43 38 32 38 38 45 60 86 116 127 206 203 180 175 175 165 153 149 139 129 124 119 111 75 35 31 30 12 47 38 43 20 18 19 17 20 13 1 351 339 318
39 40 37 32 29 29 32 44 52 51 60 93 123 119 133 133 151 151 147 148 146 140 142 134 124 115 93 47 42 50 65 69 52 14 28 24 26 37 29 31 34 38 37
34 36 33 28 23 16 27 36 46 56 56 56 66 86 109 115 117 120 122 119 115 122 132 138 130 138 137 149 117 79 68 75 69 2 25 36 24 44 39 38 44 49 50
31 31 30 24 21 18 25 28 36 45 53 50 46 57 85 85 107 126 119 106 92 84 101 106 116 116 122 123 117 115 109 93 68 30 31 62 23 38 40 44 46 53 54
30 29 24 21 20 12 18 27 39 39 48 43 40 45 66 77 106 132 126 118 104 87 88 100 97 88 79 80 94 94 83 81 61 24 18 69 37 37 45 40 39 48 53
26 25 25 19 16 11 14 23 34 44 52 48 42 40 49 63 105 123 128 130 124 114 105 90 74 64 61 60 60 67 98 105 101 55 10 51 43 54 73 42 36 38 45
Height
1550 1551 1552 1553 1554 1555 1557 1558 1560 1561 1563 1564 1565 1566 1567 1567 1568 1568 1567 1567 1567 1567 1567 1568 1569 1570 1570 1571 1572 1572 1573 1574 1575 1576 1577 1577 1578 1579 1580 1580 1580 1581 1581
1549 1550 1551 1552 1553 1554 1556 1557 1559 1561 1562 1563 1564 1565 1566 1567 1567 1567 1567 1567 1566 1566 1567 1567 1568 1569 1570 1570 1571 1572 1573 1573 1574 1575 1576 1577 1578 1578 1579 1579 1580 1580 1580
1546 1548 1549 1550 1552 1553 1554 1556 1558 1560 1561 1562 1563 1564 1565 1566 1566 1567 1567 1567 1567 1567 1567 1567 1568 1568 1569 1570 1570 1571 1572 1573 1573 1574 1575 1576 1577 1577 1578 1578 1579 1579 1579
1543 1545 1547 1548 1550 1551 1553 1555 1556 1558 1560 1561 1562 1563 1564 1565 1565 1566 1566 1566 1567 1567 1567 1567 1567 1568 1568 1569 1569 1570 1571 1571 1572 1573 1574 1574 1575 1576 1576 1577 1577 1577 1578
1539 1541 1543 1546 1548 1549 1551 1552 1554 1556 1558 1559 1561 1562 1562 1563 1564 1564 1565 1566 1566 1567 1567 1567 1567 1567 1567 1568 1568 1569 1570 1570 1571 1571 1572 1573 1573 1574 1574 1575 1575 1575 1576
1535 1537 1539 1541 1544 1546 1548 1549 1551 1553 1555 1557 1559 1560 1561 1561 1562 1563 1564 1564 1565 1566 1566 1567 1567 1567 1567 1567 1568 1568 1568 1569 1569 1570 1570 1571 1571 1571 1572 1572 1572 1573 1573
1530 1532 1534 1537 1539 1541 1544 1546 1548 1550 1552 1554 1556 1557 1558 1559 1560 1561 1562 1562 1563 1564 1565 1566 1566 1567 1567 1567 1567 1567 1568 1568 1568 1569 1569 1569 1569 1569 1570 1570 1570 1570 1571
1524 1527 1529 1532 1534 1537 1539 1542 1544 1546 1549 1551 1553 1554 1555 1557 1556 1557 1558 1559 1561 1562 1563 1564 1565 1565 1566 1566 1566 1567 1567 1567 1567 1567 1568 1568 1568 1568 1568 1568 1568 1568 1568
1518 1521 1523 1526 1529 1532 1534 1537 1539 1542 1544 1547 1549 1551 1552 1552 1553 1554 1554 1556 1557 1558 1560 1561 1562 1563 1564 1565 1565 1566 1566 1566 1566 1566 1566 1566 1566 1566 1566 1566 1566 1566 1567
1513 1515 1518 1520 1523 1526 1528 1531 1534 1537 1540 1542 1544 1546 1548 1549 1550 1550 1551 1552 1553 1554 1556 1558 1559 1560 1561 1562 1563 1564 1565 1565 1565 1565 1565 1565 1565 1565 1565 1565 1565 1565 1565
1507 1510 1513 1515 1518 1520 1522 1525 1528 1532 1535 1538 1540 1541 1543 1544 1546 1547 1548 1549 1550 1551 1552 1554 1555 1557 1558 1559 1561 1562 1562 1563 1564 1564 1564 1564 1564 1564 1564 1564 1564 1564 1564
1502 1504 1507 1510 1512 1514 1517 1520 1523 1526 1529 1532 1534 1536 1538 1539 1540 1542 1544 1545 1546 1547 1548 1550 1551 1553 1554 1556 1557 1559 1560 1561 1561 1562 1562 1562 1562 1562 1562 1562 1562 1562 1562
1497 1499 1502 1504 1507 1509 1512 1515 1518 1521 1524 1527 1529 1531 1533 1535 1537 1538 1539 1540 1542 1543 1544 1546 1547 1549 1550 1552 1554 1555 1556 1558 1558 1559 1560 1560 1560 1560 1560 1560 1560 1560 1560
1495 1496 1498 1500 1502 1505 1507 1510 1512 1516 1518 1521 1523 1526 1529 1531 1532 1534 1535 1537 1538 1540 1540 1542 1543 1544 1546 1547 1549 1551 1552 1554 1555 1556 1557 1557 1557 1557 1558 1558 1558 1558 1558
1493 1494 1495 1497 1499 1501 1504 1506 1509 1511 1514 1517 1519 1522 1525 1527 1529 1530 1532 1534 1536 1536 1537 1538 1540 1541 1542 1543 1545 1547 1549 1550 1551 1553 1554 1554 1554 1555 1555 1555 1555 1555 1555
1492 1493 1493 1495 1496 1498 1500 1503 1505 1508 1510 1513 1516 1519 1521 1523 1526 1527 1529 1530 1532 1534 1534 1535 1537 1537 1538 1539 1541 1542 1544 1546 1547 1549 1550 1551 1551 1552 1552 1552 1552 1552 1552
1493 1493 1494 1495 1495 1497 1499 1501 1503 1506 1508 1511 1514 1516 1519 1521 1523 1525 1527 1528 1529 1531 1532 1533 1534 1534 1535 1536 1537 1539 1541 1542 1543 1545 1546 1546 1547 1548 1548 1549 1549 1549 1549
1495 1495 1496 1496 1497 1498 1499 1501 1503 1504 1507 1510 1512 1515 1517 1520 1522 1523 1525 1526 1527 1529 1530 1531 1531 1532 1532 1533 1534 1536 1537 1538 1540 1541 1541 1542 1543 1544 1544 1545 1545 1545 1545
1497 1497 1498 1498 1498 1499 1500 1501 1502 1504 1506 1509 1511 1514 1516 1519 1521 1522 1524 1525 1526 1527 1528 1529 1529 1530 1530 1531 1532 1533 1534 1535 1536 1537 1537 1538 1539 1539 1540 1540 1540 1540 1540
1500 1500 1499 1499 1500 1500 1501 1502 1503 1505 1506 1509 1511 1514 1516 1518 1520 1522 1523 1524 1525 1526 1527 1528 1528 1529 1529 1530 1530 1531 1532 1532 1533 1534 1534 1535 1535 1536 1536 1536 1536 1536 1536
1502 1502 1501 1501 1501 1501 1502 1502 1503 1504 1506 1508 1511 1513 1515 1518 1519 1521 1522 1523 1524 1525 1526 1527 1527 1528 1528 1529 1529 1529 1530 1530 1531 1531 1532 1532 1532 1532 1532 1532 1532 1532 1531
1505 1504 1503 1502 1502 1502 1502 1502 1503 1505 1506 1508 1510 1513 1515 1517 1519 1521 1522 1523 1525 1526 1526 1527 1527 1528 1528 1528 1528 1528 1529 1529 1530 1531 1531 1531 1531 1530 1530 1530 1530 1529 1529
1508 1506 1505 1504 1503 1502 1502 1502 1503 1504 1506 1507 1509 1512 1514 1516 1519 1520 1522 1523 1525 1526 1527 1528 1528 1528 1528 1528 1528 1528 1528 1529 1529 1530 1531 1530 1530 1529 1529 1529 1529 1528 1528
1511 1509 1507 1506 1504 1503 1503 1503 1503 1504 1505 1507 1509 1511 1513 1516 1518 1520 1522 1524 1525 1526 1527 1528 1528 1529 1529 1529 1529 1529 1529 1529 1530 1530 1531 1531 1531 1530 1530 1529 1529 1528 1527
1513 1511 1509 1508 1506 1505 1504 1504 1504 1504 1506 1507 1508 1510 1513 1515 1518 1520 1522 1524 1525 1527 1528 1529 1529 1529 1530 1530 1530 1530 1530 1530 1530 1531 1531 1531 1531 1531 1531 1530 1530 1529 1528
1516 1514 1511 1510 1508 1506 1505 1505 1504 1505 1506 1507 1509 1510 1512 1515 1517 1520 1522 1524 1526 1527 1528 1529 1530 1530 1531 1531 1531 1531 1531 1531 1531 1532 1532 1532 1532 1532 1532 1532 1531 1530 1529